DEMNG SBGL-SBVT

Flight info

Callsign DEMNG
Flight time 1h 39m
Altitude 7000
Route TISVA DCT TODET
Aircraft PA24/L-SDGRY/S

Departure

Time 2026-05-01 10:34
Airport Rio Galeão – Tom Jobim International Airport (SBGL)

Arrival

Time 2026-05-01 12:14
Airport Eurico de Aguiar Salles International Airport (SBVT)
Time Latitude Longitude Altitude Speed Heading
2026-05-01 10:19 -22.80100 -43.22728 32 ft 0 kts 221°
2026-05-01 10:27 -22.80101 -43.22729 32 ft 0 kts 204°
2026-05-01 10:28 -22.80105 -43.22729 32 ft 1 kts 176°
2026-05-01 10:28 -22.80025 -43.22680 32 ft 12 kts 30°
2026-05-01 10:28 -22.79944 -43.22636 32 ft 15 kts
2026-05-01 10:29 -22.79829 -43.22772 33 ft 17 kts 254°
2026-05-01 10:29 -22.79863 -43.22898 32 ft 18 kts 253°
2026-05-01 10:30 -22.79939 -43.23204 27 ft 22 kts 254°
2026-05-01 10:30 -22.80038 -43.23565 24 ft 25 kts 253°
2026-05-01 10:31 -22.80089 -43.23792 23 ft 16 kts 272°
2026-05-01 10:31 -22.79906 -43.23900 21 ft 12 kts 284°
2026-05-01 10:32 -22.79902 -43.23923 22 ft 0 kts 275°
2026-05-01 10:32 -22.79901 -43.23932 22 ft 8 kts 275°
2026-05-01 10:33 -22.79784 -43.23896 22 ft 20 kts 50°
2026-05-01 10:33 -22.79550 -43.23055 199 ft 84 kts 74°
2026-05-01 10:34 -22.79387 -43.22456 532 ft 83 kts 74°
2026-05-01 10:34 -22.79229 -43.21832 803 ft 89 kts 78°
2026-05-01 10:34 -22.79139 -43.21208 1167 ft 82 kts 76°
2026-05-01 10:35 -22.78917 -43.19945 1669 ft 92 kts 79°
2026-05-01 10:35 -22.78799 -43.19230 1900 ft 92 kts 78°
2026-05-01 10:35 -22.78665 -43.18561 2140 ft 93 kts 77°
2026-05-01 10:35 -22.78523 -43.17914 2406 ft 89 kts 76°
2026-05-01 10:36 -22.78227 -43.16590 2859 ft 90 kts 76°
2026-05-01 10:36 -22.78080 -43.15930 3084 ft 90 kts 77°
2026-05-01 10:36 -22.77936 -43.15272 3322 ft 90 kts 77°
2026-05-01 10:37 -22.77792 -43.14611 3547 ft 91 kts 77°
2026-05-01 10:37 -22.77499 -43.13286 4044 ft 92 kts 78°
2026-05-01 10:37 -22.77353 -43.12622 4312 ft 91 kts 77°
2026-05-01 10:38 -22.77207 -43.11945 4589 ft 93 kts 78°
2026-05-01 10:38 -22.77058 -43.11273 4866 ft 92 kts 77°
2026-05-01 10:38 -22.76908 -43.10591 5111 ft 93 kts 77°
2026-05-01 10:38 -22.76759 -43.09912 5366 ft 94 kts 77°
2026-05-01 10:39 -22.76610 -43.09219 5623 ft 94 kts 78°
2026-05-01 10:39 -22.76459 -43.08530 5874 ft 95 kts 77°
2026-05-01 10:39 -22.76299 -43.07829 6133 ft 95 kts 77°
2026-05-01 10:39 -22.76148 -43.07130 6386 ft 96 kts 77°
2026-05-01 10:40 -22.75996 -43.06420 6648 ft 96 kts 77°
2026-05-01 10:40 -22.75833 -43.05710 6874 ft 99 kts 77°
2026-05-01 10:40 -22.75675 -43.04962 7039 ft 109 kts 77°
2026-05-01 10:40 -22.75492 -43.04089 7065 ft 128 kts 78°
2026-05-01 10:41 -22.75284 -43.03096 7056 ft 142 kts 78°
2026-05-01 10:41 -22.75044 -43.02012 7017 ft 151 kts 77°
2026-05-01 10:41 -22.74562 -42.99749 7053 ft 158 kts 78°
2026-05-01 10:42 -22.74272 -42.98606 7150 ft 154 kts 76°
2026-05-01 10:42 -22.74041 -42.97474 7187 ft 156 kts 79°
2026-05-01 10:42 -22.73819 -42.96315 7186 ft 158 kts 78°
2026-05-01 10:42 -22.73564 -42.95153 7183 ft 159 kts 77°
2026-05-01 10:43 -22.73313 -42.93982 7181 ft 160 kts 77°
2026-05-01 10:43 -22.73061 -42.92805 7180 ft 160 kts 77°
2026-05-01 10:43 -22.72808 -42.91632 7179 ft 160 kts 77°
2026-05-01 10:43 -22.72549 -42.90463 7179 ft 160 kts 76°
2026-05-01 10:44 -22.72288 -42.89287 7180 ft 161 kts 78°
2026-05-01 10:44 -22.72045 -42.88102 7180 ft 161 kts 77°
2026-05-01 10:44 -22.71778 -42.86928 7178 ft 160 kts 78°
2026-05-01 10:44 -22.71554 -42.85765 7174 ft 159 kts 79°
2026-05-01 10:45 -22.71311 -42.84603 7173 ft 158 kts 77°
2026-05-01 10:45 -22.71061 -42.83452 7174 ft 157 kts 77°
2026-05-01 10:45 -22.70810 -42.82305 7182 ft 156 kts 77°
2026-05-01 10:45 -22.70562 -42.81158 7183 ft 156 kts 77°
2026-05-01 10:46 -22.70314 -42.80015 7183 ft 156 kts 77°
2026-05-01 10:46 -22.70065 -42.78868 7184 ft 156 kts 77°
2026-05-01 10:46 -22.69818 -42.77724 7185 ft 156 kts 77°
2026-05-01 10:46 -22.69570 -42.76577 7184 ft 156 kts 77°
2026-05-01 10:47 -22.69324 -42.75434 7184 ft 156 kts 77°
2026-05-01 10:47 -22.69075 -42.74292 7185 ft 156 kts 77°
2026-05-01 10:47 -22.68829 -42.73148 7186 ft 156 kts 77°
2026-05-01 10:47 -22.68583 -42.72002 7186 ft 157 kts 77°
2026-05-01 10:48 -22.68337 -42.70854 7185 ft 157 kts 77°
2026-05-01 10:48 -22.68090 -42.69705 7185 ft 157 kts 77°
2026-05-01 10:48 -22.67841 -42.68557 7182 ft 157 kts 77°
2026-05-01 10:48 -22.67593 -42.67410 7181 ft 156 kts 77°
2026-05-01 10:49 -22.67345 -42.66265 7181 ft 156 kts 77°
2026-05-01 10:49 -22.67095 -42.65121 7192 ft 156 kts 77°
2026-05-01 10:49 -22.66849 -42.63978 7191 ft 156 kts 77°
2026-05-01 10:49 -22.66601 -42.62834 7193 ft 156 kts 77°
2026-05-01 10:50 -22.66353 -42.61688 7193 ft 157 kts 77°
2026-05-01 10:50 -22.66104 -42.60536 7191 ft 157 kts 77°
2026-05-01 10:50 -22.65855 -42.59381 7190 ft 158 kts 77°
2026-05-01 10:50 -22.65604 -42.58226 7189 ft 157 kts 77°
2026-05-01 10:51 -22.65354 -42.57073 7190 ft 157 kts 77°
2026-05-01 10:51 -22.65103 -42.55923 7189 ft 157 kts 77°
2026-05-01 10:51 -22.64860 -42.54785 7189 ft 157 kts 77°
2026-05-01 10:51 -22.64610 -42.53634 7190 ft 157 kts 77°
2026-05-01 10:52 -22.64359 -42.52481 7185 ft 157 kts 77°
2026-05-01 10:52 -22.64109 -42.51328 7184 ft 157 kts 77°
2026-05-01 10:52 -22.63858 -42.50174 7184 ft 157 kts 77°
2026-05-01 10:52 -22.63606 -42.49022 7184 ft 157 kts 77°
2026-05-01 10:53 -22.63356 -42.47871 7190 ft 157 kts 77°
2026-05-01 10:53 -22.63106 -42.46717 7189 ft 157 kts 77°
2026-05-01 10:53 -22.62856 -42.45565 7189 ft 157 kts 77°
2026-05-01 10:53 -22.62606 -42.44414 7187 ft 157 kts 77°
2026-05-01 10:54 -22.62352 -42.43261 7186 ft 157 kts 77°
2026-05-01 10:54 -22.62102 -42.42109 7187 ft 157 kts 77°
2026-05-01 10:54 -22.61852 -42.40956 7187 ft 157 kts 77°
2026-05-01 10:54 -22.61601 -42.39803 7186 ft 157 kts 77°
2026-05-01 10:55 -22.61349 -42.38650 7187 ft 157 kts 77°
2026-05-01 10:55 -22.61098 -42.37497 7187 ft 157 kts 77°
2026-05-01 10:55 -22.60845 -42.36346 7184 ft 157 kts 77°
2026-05-01 10:55 -22.60597 -42.35207 7184 ft 157 kts 77°
2026-05-01 10:56 -22.60346 -42.34054 7185 ft 157 kts 77°
2026-05-01 10:56 -22.60091 -42.32888 7185 ft 157 kts 77°
2026-05-01 10:56 -22.59837 -42.31732 7185 ft 158 kts 77°
2026-05-01 10:56 -22.59589 -42.30594 7184 ft 158 kts 77°
2026-05-01 10:57 -22.59337 -42.29441 7190 ft 157 kts 77°
2026-05-01 10:57 -22.59085 -42.28288 7190 ft 157 kts 77°
2026-05-01 10:57 -22.58833 -42.27135 7184 ft 157 kts 77°
2026-05-01 10:57 -22.58581 -42.25983 7184 ft 157 kts 77°
2026-05-01 10:58 -22.58166 -42.24899 7171 ft 158 kts 52°
2026-05-01 10:58 -22.57330 -42.24126 7188 ft 158 kts 40°
2026-05-01 10:58 -22.56484 -42.23360 7188 ft 159 kts 42°
2026-05-01 10:58 -22.55643 -42.22583 7186 ft 159 kts 41°
2026-05-01 10:59 -22.54797 -42.21809 7185 ft 159 kts 41°
2026-05-01 10:59 -22.53947 -42.21040 7185 ft 160 kts 41°
2026-05-01 10:59 -22.53090 -42.20274 7184 ft 160 kts 41°
2026-05-01 10:59 -22.52226 -42.19517 7185 ft 160 kts 41°
2026-05-01 11:00 -22.51371 -42.18744 7179 ft 159 kts 42°
2026-05-01 11:00 -22.50523 -42.17966 7180 ft 160 kts 42°
2026-05-01 11:00 -22.49669 -42.17194 7187 ft 160 kts 41°
2026-05-01 11:00 -22.48812 -42.16426 7186 ft 160 kts 41°
2026-05-01 11:01 -22.47957 -42.15656 7187 ft 160 kts 42°
2026-05-01 11:01 -22.47102 -42.14882 7186 ft 160 kts 41°
2026-05-01 11:01 -22.46245 -42.14114 7187 ft 160 kts 41°
2026-05-01 11:01 -22.45387 -42.13346 7192 ft 161 kts 41°
2026-05-01 11:02 -22.44528 -42.12573 7191 ft 161 kts 42°
2026-05-01 11:02 -22.43669 -42.11801 7191 ft 161 kts 42°
2026-05-01 11:02 -22.42812 -42.11023 7182 ft 161 kts 43°
2026-05-01 11:02 -22.41964 -42.10241 7180 ft 160 kts 41°
2026-05-01 11:03 -22.41115 -42.09487 7177 ft 160 kts 41°
2026-05-01 11:03 -22.40257 -42.08726 7177 ft 159 kts 41°
2026-05-01 11:03 -22.39401 -42.07965 7176 ft 159 kts 41°
2026-05-01 11:03 -22.38548 -42.07197 7175 ft 160 kts 41°
2026-05-01 11:04 -22.37692 -42.06429 7176 ft 160 kts 41°
2026-05-01 11:04 -22.36838 -42.05660 7174 ft 160 kts 41°
2026-05-01 11:04 -22.35981 -42.04890 7172 ft 160 kts 42°
2026-05-01 11:04 -22.35126 -42.04119 7172 ft 160 kts 41°
2026-05-01 11:05 -22.34267 -42.03348 7171 ft 161 kts 41°
2026-05-01 11:05 -22.33405 -42.02581 7166 ft 160 kts 41°
2026-05-01 11:05 -22.32548 -42.01813 7165 ft 160 kts 42°
2026-05-01 11:05 -22.31694 -42.01045 7162 ft 159 kts 42°
2026-05-01 11:06 -22.30842 -42.00284 7162 ft 159 kts 42°
2026-05-01 11:06 -22.29993 -41.99515 7163 ft 160 kts 42°
2026-05-01 11:06 -22.29141 -41.98744 7163 ft 160 kts 42°
2026-05-01 11:07 -22.27422 -41.97194 7159 ft 161 kts 42°
2026-05-01 11:07 -22.26556 -41.96428 7159 ft 161 kts 41°
2026-05-01 11:07 -22.25695 -41.95661 7159 ft 161 kts 42°
2026-05-01 11:07 -22.24835 -41.94888 7160 ft 161 kts 41°
2026-05-01 11:08 -22.23976 -41.94103 7158 ft 162 kts 43°
2026-05-01 11:08 -22.23103 -41.93335 7158 ft 162 kts 40°
2026-05-01 11:08 -22.21376 -41.91783 7157 ft 161 kts 42°
2026-05-01 11:09 -22.20808 -41.91266 7156 ft 161 kts 42°
2026-05-01 11:09 -22.19947 -41.90492 7157 ft 161 kts 41°
2026-05-01 11:09 -22.18803 -41.89474 7158 ft 161 kts 41°
2026-05-01 11:10 -22.17353 -41.88190 7158 ft 160 kts 42°
2026-05-01 11:10 -22.16498 -41.87416 7159 ft 160 kts 42°
2026-05-01 11:10 -22.15641 -41.86643 7160 ft 160 kts 42°
2026-05-01 11:10 -22.14780 -41.85876 7160 ft 161 kts 41°
2026-05-01 11:11 -22.13914 -41.85111 7161 ft 161 kts 42°
2026-05-01 11:11 -22.13057 -41.84334 7161 ft 161 kts 43°
2026-05-01 11:11 -22.12191 -41.83568 7162 ft 161 kts 42°
2026-05-01 11:11 -22.11327 -41.82798 7163 ft 161 kts 42°
2026-05-01 11:12 -22.10463 -41.82034 7163 ft 161 kts 42°
2026-05-01 11:12 -22.09604 -41.81266 7165 ft 161 kts 43°
2026-05-01 11:12 -22.08747 -41.80496 7166 ft 161 kts 43°
2026-05-01 11:12 -22.07896 -41.79720 7166 ft 159 kts 43°
2026-05-01 11:13 -22.07051 -41.78947 7169 ft 160 kts 42°
2026-05-01 11:13 -22.06192 -41.78189 7171 ft 160 kts 41°
2026-05-01 11:13 -22.05326 -41.77433 7172 ft 160 kts 41°
2026-05-01 11:13 -22.04463 -41.76667 7174 ft 161 kts 42°
2026-05-01 11:14 -22.03603 -41.75891 7173 ft 161 kts 42°
2026-05-01 11:14 -22.02740 -41.75123 7177 ft 161 kts 41°
2026-05-01 11:14 -22.01885 -41.74363 7179 ft 161 kts 42°
2026-05-01 11:14 -22.01019 -41.73593 7180 ft 161 kts 41°
2026-05-01 11:15 -22.00154 -41.72824 7182 ft 161 kts 42°
2026-05-01 11:15 -21.99293 -41.72051 7183 ft 161 kts 42°
2026-05-01 11:15 -21.98433 -41.71278 7184 ft 161 kts 42°
2026-05-01 11:15 -21.97570 -41.70509 7184 ft 161 kts 42°
2026-05-01 11:16 -21.96707 -41.69740 7185 ft 161 kts 42°
2026-05-01 11:16 -21.95842 -41.68970 7181 ft 161 kts 41°
2026-05-01 11:16 -21.94977 -41.68205 7181 ft 161 kts 42°
2026-05-01 11:16 -21.94118 -41.67433 7181 ft 161 kts 42°
2026-05-01 11:17 -21.93260 -41.66656 7181 ft 161 kts 42°
2026-05-01 11:17 -21.92397 -41.65890 7181 ft 161 kts 41°
2026-05-01 11:17 -21.91532 -41.65129 7184 ft 161 kts 41°
2026-05-01 11:17 -21.90668 -41.64366 7184 ft 161 kts 41°
2026-05-01 11:18 -21.89806 -41.63598 7184 ft 161 kts 42°
2026-05-01 11:18 -21.88945 -41.62828 7184 ft 161 kts 42°
2026-05-01 11:18 -21.88085 -41.62058 7184 ft 161 kts 42°
2026-05-01 11:18 -21.87223 -41.61289 7185 ft 161 kts 41°
2026-05-01 11:19 -21.86359 -41.60521 7184 ft 161 kts 42°
2026-05-01 11:19 -21.85499 -41.59755 7181 ft 161 kts 42°
2026-05-01 11:19 -21.84634 -41.58989 7181 ft 161 kts 41°
2026-05-01 11:19 -21.83772 -41.58223 7181 ft 161 kts 42°
2026-05-01 11:20 -21.82911 -41.57458 7179 ft 160 kts 41°
2026-05-01 11:20 -21.82051 -41.56692 7180 ft 160 kts 42°
2026-05-01 11:20 -21.81190 -41.55930 7181 ft 160 kts 42°
2026-05-01 11:20 -21.80331 -41.55166 7181 ft 160 kts 42°
2026-05-01 11:21 -21.79470 -41.54406 7175 ft 160 kts 41°
2026-05-01 11:21 -21.78608 -41.53642 7174 ft 160 kts 42°
2026-05-01 11:21 -21.77751 -41.52876 7174 ft 160 kts 42°
2026-05-01 11:21 -21.76889 -41.52108 7176 ft 161 kts 42°
2026-05-01 11:22 -21.76043 -41.51352 7172 ft 160 kts 43°
2026-05-01 11:22 -21.75182 -41.50589 7172 ft 160 kts 42°
2026-05-01 11:22 -21.74318 -41.49830 7172 ft 161 kts 42°
2026-05-01 11:22 -21.73450 -41.49070 7172 ft 161 kts 42°
2026-05-01 11:23 -21.72589 -41.48302 7172 ft 161 kts 43°
2026-05-01 11:23 -21.71732 -41.47531 7172 ft 160 kts 43°
2026-05-01 11:23 -21.70869 -41.46768 7171 ft 160 kts 43°
2026-05-01 11:23 -21.70011 -41.46002 7169 ft 160 kts 43°
2026-05-01 11:24 -21.69155 -41.45237 7169 ft 160 kts 43°
2026-05-01 11:24 -21.68296 -41.44474 7170 ft 160 kts 42°
2026-05-01 11:24 -21.66572 -41.42950 7169 ft 161 kts 43°
2026-05-01 11:25 -21.65711 -41.42188 7169 ft 160 kts 42°
2026-05-01 11:25 -21.63990 -41.40661 7168 ft 160 kts 43°
2026-05-01 11:25 -21.63129 -41.39899 7169 ft 160 kts 42°
2026-05-01 11:26 -21.62263 -41.39139 7169 ft 161 kts 42°
2026-05-01 11:26 -21.60541 -41.37607 7169 ft 160 kts 43°
2026-05-01 11:26 -21.59684 -41.36842 7169 ft 160 kts 43°
2026-05-01 11:27 -21.58825 -41.36082 7167 ft 160 kts 42°
2026-05-01 11:27 -21.57963 -41.35324 7169 ft 160 kts 43°
2026-05-01 11:27 -21.57118 -41.34572 7169 ft 160 kts 43°
2026-05-01 11:27 -21.56255 -41.33825 7169 ft 159 kts 43°
2026-05-01 11:28 -21.55397 -41.33071 7170 ft 159 kts 43°
2026-05-01 11:28 -21.54545 -41.32315 7170 ft 159 kts 43°
2026-05-01 11:28 -21.53691 -41.31556 7170 ft 159 kts 44°
2026-05-01 11:29 -21.51986 -41.30037 7170 ft 159 kts 43°
2026-05-01 11:29 -21.51133 -41.29278 7171 ft 159 kts 43°
2026-05-01 11:29 -21.49421 -41.27766 7173 ft 159 kts 43°
2026-05-01 11:30 -21.48551 -41.27026 7174 ft 159 kts 41°
2026-05-01 11:30 -21.47665 -41.26310 7175 ft 160 kts 40°
2026-05-01 11:30 -21.46768 -41.25601 7173 ft 160 kts 40°
2026-05-01 11:30 -21.45876 -41.24890 7179 ft 160 kts 40°
2026-05-01 11:31 -21.44988 -41.24172 7181 ft 159 kts 41°
2026-05-01 11:31 -21.44099 -41.23457 7180 ft 160 kts 40°
2026-05-01 11:31 -21.43210 -41.22742 7181 ft 160 kts 40°
2026-05-01 11:31 -21.42323 -41.22026 7181 ft 159 kts 40°
2026-05-01 11:32 -21.41439 -41.21309 7181 ft 159 kts 41°
2026-05-01 11:32 -21.40555 -41.20593 7181 ft 159 kts 40°
2026-05-01 11:32 -21.39670 -41.19876 7181 ft 159 kts 40°
2026-05-01 11:32 -21.38798 -41.19171 7181 ft 159 kts 41°
2026-05-01 11:33 -21.37916 -41.18451 7182 ft 159 kts 41°
2026-05-01 11:33 -21.37032 -41.17737 7184 ft 159 kts 40°
2026-05-01 11:33 -21.36147 -41.17032 7181 ft 158 kts 40°
2026-05-01 11:33 -21.35266 -41.16325 7182 ft 158 kts 41°
2026-05-01 11:34 -21.34387 -41.15613 7180 ft 158 kts 41°
2026-05-01 11:34 -21.33509 -41.14900 7181 ft 158 kts 41°
2026-05-01 11:34 -21.32634 -41.14189 7181 ft 158 kts 41°
2026-05-01 11:34 -21.31755 -41.13479 7181 ft 158 kts 41°
2026-05-01 11:35 -21.30878 -41.12769 7181 ft 158 kts 41°
2026-05-01 11:35 -21.29997 -41.12059 7181 ft 158 kts 41°
2026-05-01 11:35 -21.29119 -41.11350 7187 ft 158 kts 41°
2026-05-01 11:35 -21.28240 -41.10640 7187 ft 158 kts 41°
2026-05-01 11:36 -21.27363 -41.09929 7187 ft 158 kts 41°
2026-05-01 11:36 -21.26487 -41.09221 7187 ft 158 kts 41°
2026-05-01 11:36 -21.25610 -41.08511 7181 ft 158 kts 41°
2026-05-01 11:36 -21.24728 -41.07804 7182 ft 159 kts 40°
2026-05-01 11:37 -21.23837 -41.07097 7184 ft 160 kts 39°
2026-05-01 11:37 -21.22956 -41.06357 7183 ft 161 kts 43°
2026-05-01 11:37 -21.22076 -41.05626 7182 ft 160 kts 40°
2026-05-01 11:37 -21.21179 -41.04927 7185 ft 159 kts 40°
2026-05-01 11:38 -21.20289 -41.04225 7185 ft 158 kts 40°
2026-05-01 11:38 -21.19408 -41.03520 7185 ft 158 kts 41°
2026-05-01 11:38 -21.18530 -41.02812 7186 ft 158 kts 41°
2026-05-01 11:38 -21.17655 -41.02104 7186 ft 157 kts 41°
2026-05-01 11:39 -21.16782 -41.01397 7187 ft 157 kts 41°
2026-05-01 11:39 -21.15912 -41.00697 7187 ft 156 kts 41°
2026-05-01 11:39 -21.15042 -40.99996 7187 ft 157 kts 40°
2026-05-01 11:39 -21.14170 -40.99294 7187 ft 157 kts 41°
2026-05-01 11:40 -21.13312 -40.98601 7185 ft 156 kts 40°
2026-05-01 11:40 -21.12442 -40.97901 7186 ft 157 kts 41°
2026-05-01 11:40 -21.11573 -40.97200 7187 ft 156 kts 41°
2026-05-01 11:40 -21.10706 -40.96498 7187 ft 156 kts 41°
2026-05-01 11:41 -21.09838 -40.95798 7188 ft 156 kts 41°
2026-05-01 11:41 -21.08967 -40.95095 7189 ft 157 kts 40°
2026-05-01 11:41 -21.08098 -40.94395 7190 ft 156 kts 40°
2026-05-01 11:41 -21.07228 -40.93691 7190 ft 157 kts 41°
2026-05-01 11:42 -21.06356 -40.92983 7190 ft 157 kts 40°
2026-05-01 11:42 -21.05480 -40.92286 7190 ft 157 kts 40°
2026-05-01 11:42 -21.04606 -40.91586 7191 ft 157 kts 40°
2026-05-01 11:42 -21.03731 -40.90885 7187 ft 158 kts 40°
2026-05-01 11:43 -21.02852 -40.90186 7189 ft 157 kts 40°
2026-05-01 11:43 -21.01981 -40.89482 7189 ft 157 kts 40°
2026-05-01 11:43 -21.01111 -40.88780 7189 ft 157 kts 40°
2026-05-01 11:44 -20.99368 -40.87375 7191 ft 158 kts 40°
2026-05-01 11:44 -20.98484 -40.86675 7192 ft 159 kts 38°
2026-05-01 11:44 -20.97554 -40.86020 7192 ft 160 kts 39°
2026-05-01 11:44 -20.96697 -40.85269 7189 ft 158 kts 43°
2026-05-01 11:45 -20.95843 -40.84535 7187 ft 157 kts 41°
2026-05-01 11:45 -20.94984 -40.83826 7187 ft 156 kts 40°
2026-05-01 11:45 -20.94121 -40.83129 7188 ft 156 kts 40°
2026-05-01 11:45 -20.93253 -40.82438 7188 ft 155 kts 40°
2026-05-01 11:46 -20.92386 -40.81750 7187 ft 155 kts 40°
2026-05-01 11:46 -20.91531 -40.81072 7189 ft 155 kts 40°
2026-05-01 11:46 -20.90668 -40.80382 7189 ft 155 kts 40°
2026-05-01 11:46 -20.89804 -40.79691 7189 ft 156 kts 40°
2026-05-01 11:47 -20.88923 -40.78991 7189 ft 155 kts 40°
2026-05-01 11:47 -20.88070 -40.78310 7192 ft 155 kts 40°
2026-05-01 11:47 -20.87211 -40.77616 7191 ft 155 kts 40°
2026-05-01 11:47 -20.86353 -40.76928 7192 ft 154 kts 40°
2026-05-01 11:48 -20.85494 -40.76238 7192 ft 155 kts 40°
2026-05-01 11:48 -20.84630 -40.75549 7192 ft 155 kts 40°
2026-05-01 11:48 -20.83767 -40.74859 7193 ft 155 kts 40°
2026-05-01 11:48 -20.82902 -40.74165 7193 ft 156 kts 40°
2026-05-01 11:49 -20.82037 -40.73472 7189 ft 155 kts 40°
2026-05-01 11:49 -20.81174 -40.72782 7189 ft 155 kts 40°
2026-05-01 11:49 -20.80312 -40.72089 7197 ft 155 kts 40°
2026-05-01 11:49 -20.79454 -40.71398 7197 ft 154 kts 40°
2026-05-01 11:50 -20.78593 -40.70712 7197 ft 155 kts 40°
2026-05-01 11:50 -20.77733 -40.70025 7197 ft 154 kts 40°
2026-05-01 11:50 -20.76876 -40.69336 7200 ft 155 kts 40°
2026-05-01 11:50 -20.76016 -40.68644 7196 ft 155 kts 40°
2026-05-01 11:51 -20.75155 -40.67955 7197 ft 155 kts 39°
2026-05-01 11:51 -20.74294 -40.67265 7197 ft 155 kts 39°
2026-05-01 11:51 -20.73431 -40.66576 7197 ft 155 kts 39°
2026-05-01 11:51 -20.72568 -40.65888 7198 ft 155 kts 39°
2026-05-01 11:52 -20.71708 -40.65201 7203 ft 154 kts 39°
2026-05-01 11:52 -20.70848 -40.64513 7197 ft 154 kts 39°
2026-05-01 11:52 -20.69999 -40.63835 7197 ft 154 kts 39°
2026-05-01 11:52 -20.69138 -40.63148 7198 ft 155 kts 39°
2026-05-01 11:53 -20.68274 -40.62458 7198 ft 155 kts 39°
2026-05-01 11:53 -20.67411 -40.61769 7198 ft 155 kts 40°
2026-05-01 11:53 -20.66548 -40.61078 7198 ft 155 kts 39°
2026-05-01 11:53 -20.65682 -40.60386 7199 ft 156 kts 39°
2026-05-01 11:54 -20.64808 -40.59693 7198 ft 157 kts 39°
2026-05-01 11:54 -20.63936 -40.58999 7197 ft 156 kts 39°
2026-05-01 11:54 -20.63074 -40.58301 7200 ft 155 kts 39°
2026-05-01 11:54 -20.62215 -40.57614 7199 ft 153 kts 39°
2026-05-01 11:55 -20.61359 -40.56939 7199 ft 153 kts 39°
2026-05-01 11:55 -20.60504 -40.56256 7195 ft 154 kts 40°
2026-05-01 11:55 -20.59647 -40.55567 7195 ft 155 kts 39°
2026-05-01 11:55 -20.58790 -40.54880 7195 ft 154 kts 40°
2026-05-01 11:56 -20.57930 -40.54193 7196 ft 155 kts 39°
2026-05-01 11:56 -20.57067 -40.53499 7197 ft 156 kts 40°
2026-05-01 11:56 -20.56490 -40.53048 7197 ft 156 kts 39°
2026-05-01 11:56 -20.55616 -40.52353 7198 ft 157 kts 40°
2026-05-01 11:57 -20.54761 -40.51649 7196 ft 154 kts 40°
2026-05-01 11:57 -20.53898 -40.50968 7195 ft 154 kts 39°
2026-05-01 11:57 -20.53030 -40.50294 7194 ft 154 kts 39°
2026-05-01 11:57 -20.52165 -40.49611 7194 ft 155 kts 39°
2026-05-01 11:58 -20.51302 -40.48924 7194 ft 155 kts 39°
2026-05-01 11:58 -20.50442 -40.48238 7195 ft 155 kts 40°
2026-05-01 11:58 -20.48717 -40.46850 7192 ft 155 kts 39°
2026-05-01 11:59 -20.47851 -40.46161 7192 ft 155 kts 39°
2026-05-01 11:59 -20.46989 -40.45473 7191 ft 155 kts 39°
2026-05-01 11:59 -20.46125 -40.44785 7192 ft 155 kts 39°
2026-05-01 12:00 -20.44396 -40.43410 7193 ft 155 kts 39°
2026-05-01 12:00 -20.43533 -40.42727 7196 ft 154 kts 39°
2026-05-01 12:00 -20.41815 -40.41356 7198 ft 154 kts 39°
2026-05-01 12:01 -20.40955 -40.40670 7197 ft 155 kts 39°
2026-05-01 12:01 -20.40089 -40.39982 7196 ft 155 kts 39°
2026-05-01 12:01 -20.39226 -40.39294 7195 ft 155 kts 39°
2026-05-01 12:01 -20.38362 -40.38607 7192 ft 155 kts 39°
2026-05-01 12:02 -20.37497 -40.37921 7193 ft 155 kts 39°
2026-05-01 12:02 -20.36655 -40.37184 7194 ft 158 kts 53°
2026-05-01 12:02 -20.36308 -40.36117 7175 ft 153 kts 96°
2026-05-01 12:02 -20.36734 -40.35153 7171 ft 143 kts 133°
2026-05-01 12:03 -20.37433 -40.34449 7163 ft 134 kts 135°
2026-05-01 12:03 -20.38073 -40.33828 7177 ft 116 kts 134°
2026-05-01 12:03 -20.38634 -40.33273 7106 ft 109 kts 130°
2026-05-01 12:03 -20.39095 -40.32591 6915 ft 113 kts 116°
2026-05-01 12:04 -20.39394 -40.31852 6830 ft 107 kts 105°
2026-05-01 12:04 -20.39559 -40.31058 6676 ft 109 kts 98°
2026-05-01 12:04 -20.39737 -40.30286 6518 ft 109 kts 112°
2026-05-01 12:04 -20.40164 -40.29618 6320 ft 111 kts 131°
2026-05-01 12:05 -20.40797 -40.29137 6146 ft 113 kts 150°
2026-05-01 12:05 -20.42365 -40.28908 5790 ft 118 kts 186°
2026-05-01 12:05 -20.43183 -40.28975 5627 ft 119 kts 167°
2026-05-01 12:06 -20.43921 -40.28628 5476 ft 114 kts 137°
2026-05-01 12:06 -20.44319 -40.27939 5343 ft 110 kts 101°
2026-05-01 12:06 -20.44260 -40.27148 5195 ft 104 kts 67°
2026-05-01 12:06 -20.43832 -40.26582 4993 ft 100 kts 40°
2026-05-01 12:07 -20.43205 -40.26207 4704 ft 103 kts 26°
2026-05-01 12:07 -20.42538 -40.25962 4453 ft 103 kts 18°
2026-05-01 12:07 -20.41832 -40.25802 4195 ft 103 kts 14°
2026-05-01 12:07 -20.41132 -40.25659 3943 ft 103 kts 14°
2026-05-01 12:08 -20.40431 -40.25517 3679 ft 104 kts 14°
2026-05-01 12:08 -20.39713 -40.25391 3420 ft 104 kts
2026-05-01 12:08 -20.38990 -40.25369 3151 ft 104 kts
2026-05-01 12:08 -20.38264 -40.25403 2898 ft 104 kts 357°
2026-05-01 12:09 -20.37547 -40.25504 2647 ft 104 kts 352°
2026-05-01 12:09 -20.36831 -40.25648 2398 ft 105 kts 350°
2026-05-01 12:09 -20.36117 -40.25790 2149 ft 104 kts 349°
2026-05-01 12:09 -20.35414 -40.25982 1905 ft 104 kts 345°
2026-05-01 12:10 -20.34721 -40.26188 1659 ft 103 kts 346°
2026-05-01 12:10 -20.33355 -40.26580 1337 ft 101 kts 342°
2026-05-01 12:10 -20.32695 -40.26804 1227 ft 99 kts 342°
2026-05-01 12:11 -20.31370 -40.27175 991 ft 98 kts 351°
2026-05-01 12:11 -20.30691 -40.27249 876 ft 95 kts 355°
2026-05-01 12:11 -20.30102 -40.27295 811 ft 74 kts 351°
2026-05-01 12:12 -20.29615 -40.27387 749 ft 73 kts 347°
2026-05-01 12:12 -20.29097 -40.27469 660 ft 76 kts 352°
2026-05-01 12:12 -20.28569 -40.27535 542 ft 78 kts 350°
2026-05-01 12:12 -20.28035 -40.27619 409 ft 77 kts 348°
2026-05-01 12:13 -20.27504 -40.27707 280 ft 77 kts 350°
2026-05-01 12:13 -20.26977 -40.27790 153 ft 77 kts 349°
2026-05-01 12:13 -20.26442 -40.27871 48 ft 76 kts 350°
2026-05-01 12:13 -20.25985 -40.27939 24 ft 54 kts 348°
2026-05-01 12:14 -20.25755 -40.27971 24 ft 16 kts 353°
2026-05-01 12:14 -20.25721 -40.27983 23 ft 12 kts 175°
2026-05-01 12:14 -20.25820 -40.27964 24 ft 17 kts 169°
2026-05-01 12:14 -20.25910 -40.27991 24 ft 11 kts 250°
2026-05-01 12:15 -20.25928 -40.28070 22 ft 1 kts 261°
2026-05-01 12:16 -20.25928 -40.28071 22 ft 2 kts 260°
2026-05-01 12:17 -20.25970 -40.28117 22 ft 14 kts 184°
2026-05-01 12:17 -20.26068 -40.28104 23 ft 15 kts 172°
2026-05-01 12:17 -20.26172 -40.28088 24 ft 15 kts 172°
2026-05-01 12:17 -20.26277 -40.28074 25 ft 15 kts 173°
2026-05-01 12:18 -20.26343 -40.28120 26 ft 11 kts 251°
2026-05-01 12:18 -20.26349 -40.28183 26 ft 6 kts 270°
2026-05-01 12:18 -20.26351 -40.28200 26 ft 0 kts 263°